Zurück zum Katalog

DELTA 1 DEB

AktivPO
NORAD 42637·DEBRIS·🇺🇸 United States

Gestartet Jun 12, 1975 von Vandenberg Space Force Base

Loading…

Nächste Überflüge (nächste 24 Stunden)

TLE

VeraltetSource: Space-Track

Epoche: Aug 30, 2026, 21:36 UTC

1 42637U 75052LW  26242.90055932  .00000021  00000-0  15112-3 0  9996
2 42637  99.8554 126.8739 0138810 212.8502 146.3928 13.18211304615066

Verfolge DELTA 1 DEB in Echtzeit mit AllMySat

Download on the App Store